n

Club ULM Alpes Mans'Ailes

Base ULM de Piacé (72)

Météo:

Données PiouPiou :  ICI

METAR (Le Mans):

METAR de LFRM (émis le vendredi 20 octobre 2017 17:30 UTC):
LFRM 201730Z AUTO 17004KT CAVOK 14/09 Q1014 NOSIG

Coordonées GPS :

Lattitude : 48° 16' 16" Nord
Longitude : 00° 06' 15" Est
Altitude : 305 ft (93 m)
[11hPa]

Le Président

     Mickaël RIBOT


  Pour tout renseignement sur les baptêmes; contactez M. LECOURT -> 06.83.16.36.73 <-

  ou posez votre question par mail : -> ICI <-


    A la Une    

Reportage TV

Journée découverte du paramoteur en Sarthe avec LMTV


Alpes Mans'Ailes
Copyright "Alpes Mans'Ailes" 2017, tous droits réservés
Il y a eu 4600 visiteurs sur le site depuis le 01/07/2017